This is the latest recevied weather packets stored in our database for station/object ZR6G-15. If no packets are shown the sender has not sent any weather packets the latest 10 day(s).
| Time | Temp. | Humidity | Pressure | Rain* | Wind** | Luminosity | Snow |
|---|---|---|---|---|---|---|---|
| 1777893191 | 23.89° C | 18% | 1010.3 hPa | - | - | - | - |
| 1777892586 | 22.78° C | 19% | 1010.6 hPa | - | - | - | - |
| 1777891982 | 22.78° C | 19% | 1010.9 hPa | - | - | - | - |
| 1777891377 | 22.78° C | 19% | 1011.2 hPa | - | - | - | - |
| 1777890773 | 22.78° C | 19% | 1011.2 hPa | - | - | - | - |
| 1777890168 | 23.89° C | 19% | 1011.1 hPa | - | - | - | - |
| 1777889563 | 23.89° C | 20% | 1011.3 hPa | - | - | - | - |
| 1777888959 | 23.89° C | 20% | 1011.2 hPa | - | - | - | - |
| 1777888354 | 23.89° C | 19% | 1011.4 hPa | - | - | - | - |
| 1777887750 | 23.89° C | 20% | 1012 hPa | - | - | - | - |
| 1777887145 | 22.78° C | 23% | 1012.5 hPa | - | - | - | - |
| 1777886540 | 22.78° C | 24% | 1012.8 hPa | - | - | - | - |
| 1777885936 | 21.67° C | 27% | 1013.2 hPa | - | - | - | - |
| 1777885331 | 21.67° C | 29% | 1013.2 hPa | - | - | - | - |
| 1777884727 | 21.67° C | 26% | 1013.2 hPa | - | - | - | - |
| 1777884122 | 22.78° C | 26% | 1013.2 hPa | - | - | - | - |
| 1777883518 | 21.67° C | 29% | 1013.8 hPa | - | - | - | - |
| 1777882913 | 20.56° C | 32% | 1014 hPa | - | - | - | - |
| 1777882308 | 20.56° C | 32% | 1014.8 hPa | - | - | - | - |
| 1777881703 | 20° C | 34% | 1015.6 hPa | - | - | - | - |
| 1777881099 | 18.89° C | 37% | 1016.2 hPa | - | - | - | - |
| 1777880494 | 17.78° C | 38% | 1016.5 hPa | - | - | - | - |
| 1777879890 | 17.78° C | 41% | 1016.9 hPa | - | - | - | - |
| 1777879285 | 16.67° C | 44% | 1017.3 hPa | - | - | - | - |
| 1777878680 | 16.67° C | 46% | 1017.5 hPa | - | - | - | - |
* Rain since midnight (hover to see other rain measurements)
** Current wind speed in m/s (hover to see current wind gust speed)